User: anonymous   Login
Location: Unspecified
(0.0000°N, 0.0000°E)
Time: 23:03:09
(UTC+00:00)
Language:

Optus B1 - Orbit

View from above orbital plane
View from above orbital plane
View from above satellite
View from above satellite

Ground track
Ground track

The orbit data is extracted from the following two-line orbital elements,

1 22087U 92054A   16044.97484036 -.00000126  00000-0  00000+0 0  9994
2 22087   7.9463  49.9720 0005505  29.3468 154.8445  0.99202726 97237
Epoch (UTC): 13 February 2016 23:23:46
Eccentricity: 0.0005505
inclination: 7.9463°
perigee height: 36065 km
apogee height: 36112 km
right ascension of ascending node: 49.9720°
argument of perigee: 29.3468°
revolutions per day: 0.99202726
mean anomaly at epoch: 154.8445°
orbit number at epoch: 9723

The dashed part of the orbit path shows where the satellite is in the earth's shadow,  

DLR